Dakar 2012 1ère étape

Source : http://dakar.sport.francetv.fr/

1ère étape : Mar-Del-Plata - Sanata-Rosa-de-la-Pampa - Liaison : 763 km - Spécial : 57 km

Classement général Moto

RangNuméroPilote/EquipageEquipeMarque - ModèleTempsRetard
1 004 LOPEZ Francisco GIOFIL APRILIA APRILIA - 450 RXV TUAREG 00:32:37
2 001 COMA Marc KTM MRW RALLY DAKAR EAM KTM - 450 cc 00:32:51 00:00:14
3 027 PIZZOLITO Javier HONDA RACING ARGENTINA HONDA - CRF 450X 00:33:04 00:00:27
4 009 CODY Quinn Alexis GHR HONDA HONDA - CFR 450X 00:33:07 00:00:30
5 011 PRZYGONSKI Jakub ORLEN TEAM KTM - 450 Replica 00:33:26 00:00:49
6 023 BARREDA BORT Joan HUSQVARNA RALLYE TEAM BY SPEEDBRAIN HUSQVARNA - Rally 450 RR 00:33:34 00:00:57
7 036 SUNDERLAND SAM TEAM HONDA EUROPE HONDA - CRF 450 X 00:33:42 00:01:05
8 008 FARIA Ruben TEAM RED BULL KTM KTM - 450 CC RALLY 00:33:55 00:01:18
9 014 CASTEU David TEAM YAMAHA RACING YAMAHA - 450 WRF Rally 00:34:03 00:01:26
10 019 STREET Jonah JONAH STREET RACING YAMAHA - YZ450 00:34:07 00:01:30
11 006 ULLEVALSETER Pal Anders TEAM ULLEVALSETER KTM - 450 R 00:34:18 00:01:41
12 016 PAIN Olivier TEAM YAMAHA RACING YAMAHA - 450 YZF Rally 00:34:20 00:01:43
13 002 DESPRES Cyril TEAM RED BULL KTM KTM - 450cc Rally 00:34:25 00:01:48
14 015 VERHOEVEN Frans SHERCO RALLY RAID - CROCOAVENTURES SHERCO - SR 450 00:34:26 00:01:49
15 003 RODRIGUES Helder TEAM YAMAHA RACING YAMAHA - WRF 450 00:34:28 00:01:51
16 007 GONCALVES Paulo HUSQVARNA RALLYE TEAM BY SPEEDBRAIN Husqvarna - Rally 450 RR 00:34:34 00:01:57
17 025 GOUET Daniel TAMARUGAL HONDA RACING XC RALLY TEAM HONDA - CRF 450 X 00:34:56 00:02:19
18 005 PEDRERO GARCIA Juan KTM MRW RALLY DAKAR EAM KTM - 450cc Rally 00:35:01 00:02:24
19 010 VILADOMS Jordi BORDONE-FERRARI KTM - Rally Replica 00:35:02 00:02:25
20 021 AUBERT JOHNNY KTM RALLY FACTORY TEAM KTM - 450 RALLY 00:35:06 00:02:29
21 034 BOTTURI ALESSANDRO BORDONE-FERRARI KTM - 450 RALLY REPLICA 00:35:40 00:03:03
22 020 FARRES GUELL Gerard BORDONE-FERRARI KTM - 450 RALLY REPLICA 00:35:49 00:03:12
23 032 SVITKO Stefan HANT LOGOMOTION SLOVAKIA KTM - 450 RR 00:35:49 00:03:12
24 049 DABROWSKI Marek ORLEN TEAM KTM - 450 RR 00:35:49 00:03:12
25 022 DUCLOS Alain GIOFIL APRILIA APRILIA - RXV 4.5 Rally 00:35:51 00:03:14
26 028 ZANOL FELIPE KTM BRASIL KTM - 450 Replica 00:35:52 00:03:15
27 018 KNUIMAN Henk WIM MOTORS DAKAR KTM - 450 REPLICA 00:35:53 00:03:16
28 026 RODRIGUES FILHO Jose helio HUSQVARNA RALLYE TEAM BY SPEEDBRAIN HUQSVARNA - RALLY 450 RR 00:36:09 00:03:32
29 024 STANOVNIK Miran TEAM SUGAWARA KTM - 450 R 00:36:46 00:04:09
30 035 CECI Paolo BORDONE-FERRARI KTM - 450 RR 00:37:17 00:04:40
31 082 GUINDANI Vincent HFP YAMAHA - YZR 450 00:37:19 00:04:42
32 031 JAKES Ivan NAD RESS ADVENTURE TEAM BMW - G450RR 00:37:26 00:04:49
33 037 KLAUMANN IKE HUSQVARNA RALLYE TEAM BY SPEEDBRAIN HUQSVARNA - Rally 450 RR 00:37:33 00:04:56
34 057 WILLEMSEN Daniel TEAM HONDA EUROPE HONDA - CRF 450 X 00:37:38 00:05:01
35 047 ZANOTTI Alessandro TM RACING BREMA-MENICHETTI TM - 00:37:47 00:05:10
36 012 PELLICER Jose Manuel HUSQVARNA RALLYE TEAM BY SPEEDBRAIN HUSQVARNA - Rally 450 RR 00:38:06 00:05:29
37 148 GOMEZ Mauricio PACO GOMEZ RALLY TEAM YAMAHA - WR 450 00:38:06 00:05:29
38 039 GYENES Emanuel VECTRA RACING KTM - 450 RR 00:38:09 00:05:32
39 110 BIRCH Christopher MEMO TOURS - ALFIE COX TEAM KTM - 450 Replica 00:38:28 00:05:51
40 040 SERRADORI Mathieu KTM - 450 Rally 00:38:31 00:05:54
41 030 GUASCH Marc GAS GAS GAS - GAS - EC 450 00:38:34 00:05:57
42 029 BERGLUND Thomas HUSABERG RALLY TEAM SCANDINAVIA HUSABERG - FE 450 00:38:35 00:05:58
43 183 RODRIGUEZ Pablo HONDA RACING ARGENTINA HONDA - CRF450X 00:38:40 00:06:03
44 113 FAGGOTTER Rodney HUSABERG RALLYE RACING AUSTRALIA HUSABERG - FE450 00:38:41 00:06:04
45 064 SCHRÖDER DANIEL MEMO TOURS - ALFIE COX TEAM KTM - 450cc 00:38:49 00:06:12
46 068 BARROT David POWERBIKE YAMAHA IPONE YAMAHA - 450 IZF RALLY 00:38:52 00:06:15
47 050 SALVATIERRA Juan Carlos GHR HONDA HONDA - CRF450X 00:38:53 00:06:16
48 017 CZACHOR Jacek ORLEN TEAM KTM - 450 Replica 00:38:57 00:06:20
49 048 LIEFHEBBER Hans-jos KTM - 450 RR 00:38:59 00:06:22
50 066 LORMAND Etienne ROUSSILL'HOTEL - HFP YAMAHA - 450 WRF 00:39:00 00:06:23
51 051 ARREDONDO Francisco TEAM GUATEMALA KTM - 450 RALLY 00:39:02 00:06:25
52 044 DA COSTA Bruno TEAM HFP YAMAHA - YZ450 F 00:39:08 00:06:31
53 033 BETHYS Thierry YAMAHA - 450 YZF Rally 00:39:29 00:06:52
54 157 CERDERA SERGIO TEAM RPM KAWASAKI KAWASAKI - KLX 450 00:39:44 00:07:07
55 086 MUNK Jes X-RAGE RACING KTM - 450 00:40:18 00:07:41
56 046 BIANCHI PRATA Pedro TEAM BIANCHI PRATA / VODAFONE HUSQUARNA - TE449 RALLY 00:40:23 00:07:46
57 043 PISANO Michael MP CONCEPT KTM - 450 RR 00:40:24 00:07:47
58 168 GUIRAL DEMIAN AVANT MOTOS HONDA GENUINE OIL HONDA - CRF 450X 00:40:36 00:07:59
59 144 CURTIS Darryl MEMO TOURS - ALFIE COX TEAM KTM - 450 Replica 00:40:36 00:07:59
60 053 RODRIGUEZ Claudio TAMARUGAL HONDA RACING XC RALLY TEAM HONDA - CRF 450 X 00:40:36 00:07:59
61 038 BESNIER Arnaud GIOFIL APRILIA APRILIA - RXV 450 TUAREG 00:40:51 00:08:14
62 073 BONY BRUNO EMS KTM - 450 RR 00:41:02 00:08:25
63 185 SANCHEZ MARCELO TEAM RPM KAWASAKI KAWASAKI - KLX 450 R 00:41:05 00:08:28
64 098 BLONDEAU CHRISTOPHE TEAM FRANROC YAMAHA - YZF 450 00:41:08 00:08:31
65 070 JAMETT Manuel TARAPACA RALLY TEAM HUSQUARNA - TE 449 00:41:32 00:08:55
66 055 MERKIT Kemal TURKISH TEAM KTM - 450 RALLY 00:41:45 00:09:08
67 089 NASCIMENTO DENISIO PETROBRAS LUBRAX HONDA - CRF 450 00:41:59 00:09:22
68 097 LAGRIVE MATTHIEU TEAM YAMAHA RACING YAMAHA - WR 450 cc Rally 00:42:01 00:09:24
69 075 BUSIN Pablo MOTO TEAM BY ELF YAMAHA - 450 WR 00:42:02 00:09:25
70 042 PROHENS Jaime TAMARUGAL HONDA RACING XC RALLY TEAM HONDA - CRF 450X RALLY 00:42:03 00:09:26
71 145 NUTTALL Dean MEMO TOURS - ALFIE COX TEAM KTM - 450 Replica 00:42:28 00:09:51
72 084 CARILLON Patrice KTM - 450 CC 00:42:34 00:09:57
73 056 MENARD Jean-Christophe HFP YAMAHA - 450 YZF 00:42:37 00:10:00
74 077 PICCO Franco FRANCO PICCO RACING YAMAHA - WRF 450 00:42:37 00:10:00
75 081 SUESSE NED ADVRIDER/ NEDURO KTM - 450XCW 00:42:44 00:10:07
76 072 GOUNON SERGE EMS KTM - 450 RR 00:42:45 00:10:08
77 173 MALO WILSON WILSON MALO KTM DEL ECUADOR KTM - 450 RALLY 2010 00:42:46 00:10:09
78 169 HEINRICH DEL VALLE EDUARDO X-RAID TEAM KTM - 450 RALLY FACTORY 00:42:53 00:10:16
79 079 BOULANGER EDOUARD DAKAR CHALLENGE APRILIA - 450 RXV bicylindre 00:42:54 00:10:17
80 045 SANZ PLA-GILIBERT Eulalia GAS GAS GAS - GAS - EC 450 00:43:00 00:10:23
81 069 PAYEN Hugo YAMAHA - 450 WRF 00:43:10 00:10:33
82 062 SCHWARZ David HUSABERG RALLYE RACING AUSTRALIA HUSABERG - FE450 00:43:18 00:10:41
83 041 PROHENS Felipe TAMARUGAL HONDA RACING XC RALLY TEAM HONDA (Transformada) - CRF450X RALLY 00:43:24 00:10:47
84 061 MATTOS Dimas BRASIL MOTO TOUR KTM - 450 RR 00:43:27 00:10:50
85 092 HAMARD Stephane REUNION RALLYE RAID KTM - 450 RR 00:43:31 00:10:54
86 172 LUCCHESE MANUEL HUSABERG FACTORY TEAM HUSABERG - FE 450 RALLY 00:43:43 00:11:06
87 060 WATT Stanley FRONT ROW GB / CRECENT KTM KTM - 450 RR 00:43:48 00:11:11
88 076 PEDERZOLI Claudio ON-OFF RACING TEAM YAMAHA - WR 450 00:43:50 00:11:13
89 134 SERRA RIPOLL David ARCARONS SERVICES HONDA - HM 450 00:44:03 00:11:26
90 119 DOLLEVOET Ebert TEAM HONDA EUROPE HONDA - CFR 450 X 00:44:07 00:11:30
91 094 WEI Guanghui JINCHENG TEAM JINCHENG - JC 450Y 00:44:10 00:11:33
92 087 MEILLAT Christophe C.M PROMO KAWASAKI - KLX 450 R 00:44:20 00:11:43
93 115 BASSI GUSTAVO JVO RAGING YAMAHA PERGAMINO MOTO YAMAHA - WR 450 00:44:24 00:11:47
94 164 DEMELCHORI DIEGO TEAM RPM KAWASAKI KAWASAKI - 2009 00:44:36 00:11:59
95 184 SAKIR SENKALAYCI TURKISH TEAM KTM - 450 RALLY EXC 00:44:39 00:12:02
96 154 GAJDOSECH ROBERTO ANTONIO ATUEL MOTOS YAMAHA - WR 450 00:44:55 00:12:18
97 063 SAGHMEISTER Gabor KTM - 450 00:44:57 00:12:20
98 065 LAZARD Laurent MOTO TEAM BY ELF YAMAHA - WR 450 00:45:00 00:12:23
99 122 PALANTE Eric WIM MOTORS RACING DIVISION KTM - 450 RR FREVA 00:45:04 00:12:27
100 058 PUERTAS HERRERA Miguel HIMOINSA DAKAR TEAM YAMAHA - 450 WR 00:45:13 00:12:36
101 177 VAN GEEL MARCO TEAM HONDA EUROPE HONDA - CFR 450 X 00:45:29 00:12:52
102 114 FESANI ANDREA FRANCO PICCO RACING RIEJU - MOTO MRT450 00:45:30 00:12:53
103 186 VAN GERVEN JAN GHR HONDA HONDA - CRF 450 X 00:45:32 00:12:55
104 179 PETRONE Sergio MISION EZEIZA DAKAR BETA - 450 00:45:34 00:12:57
105 178 VAN WOERKUM JAN TEAM HONDA EUROPE HONDA - CFR 450 X 00:45:40 00:13:03
106 151 BEALUSTEGUI Juan Manuel AL LIMITE DAKAR 2012 YAMAHA - WR 450 F 00:45:47 00:13:10
107 159 CHITTICK Jamie GHR HONDA HONDA - CRF450X 00:45:47 00:13:10
108 074 KOFMAN Erik KTM - 450 RR 00:45:56 00:13:19
109 165 MULDER GEERT TEAM HONDA EUROPE HONDA - CFR 450 X 00:46:05 00:13:28
110 124 TARLINGTON Craig WARTHOG RALLYE TEAM KTM - 450 RALLY 00:46:08 00:13:31
111 096 CID DE LA PAZ Pablo PCP ASISTENCIA / MED BETA - RR 450 00:46:08 00:13:31
112 100 VESELY Jan CZECH DAKAR TEAM YAMAHA - WR 450F 00:46:10 00:13:33
113 181 RIOS FELIPE KTM PERU RALLY TEAM KTM - Rally Replica 00:46:21 00:13:44
114 131 THEURIOT Herve REVIVAL AVENTURES YAMAHA - 450 WRF 00:46:42 00:14:05
115 150 BELAUSTEGUI Luis FREEDOM RALLY RACING KTM - SX 150 00:46:46 00:14:09
116 152 TER BEEK RONALD GHR HONDA HONDA - CFR 450 X 00:46:47 00:14:10
117 104 DE BENEDICTIS NETO Vicente Beta - RR 450 00:47:17 00:14:40
118 071 BUTUZA Marcel BOANO HONDA - CRE F 450 X 00:47:20 00:14:43
119 059 CIOTTI Filippo FRANCO PICCO RACING RIEJU - MRT 450 00:47:21 00:14:44
120 080 PASCUAL Pablo oscar JINCHENG TEAM JINCHENG - JC450Y 00:47:35 00:14:58
121 095 MAZET Jean-Claude JCM RALLYE RAID KTM - 450 RR 00:47:43 00:15:06
122 149 CIPKA DUSAN SLOVAKIA TURBOTEAM ZATKO BMW - G450X 00:47:47 00:15:10
123 102 ALAN Eduardo ELF ARGENTINA Yamaha - WR 450 00:47:50 00:15:13
124 109 BUDWEG ARNDT BRASIL MOTO TOUR KTM - 450 RR 00:47:50 00:15:13
125 138 LECOQ SEBASTIEN TEAM PERFORMANCE ENDURO YAMAHA - 450 YZFE 00:48:00 00:15:23
126 140 REINIKE MARCO MARCO REINIKE KTM - 450 RALLY REPLICA 00:48:38 00:16:01
127 153 BEKTAS SELCUK TURKISH TEAM KTM - 450 RALLY EXC 00:48:40 00:16:03
128 116 GEOFFROY Christophe TB RACING HONDA - F 450 XE 00:48:51 00:16:14
129 093 GOMEZ Jorge VEMOTOR CANARIAS Husqvarna - 450cc 00:48:56 00:16:19
130 067 BALOOSHI MOHAMMED RED BULL KTM - 450 RR 00:48:57 00:16:20
131 107 BODINGER Ronnie HUSABERG FACTORY TEAM HUSABERG - FE 450 00:48:57 00:16:20
132 170 KREIDL FERDINAND KLS ADVANCE RALLYE RAID TEAM KTM - 450 Replica 00:48:58 00:16:21
133 085 PENATE MUNOZ Pedro Manuel KH7 VALSEBIKE KTM - 450 00:49:09 00:16:32
134 120 ILLANES Rodrigo TARAPACA RALLY TEAM Husqvarna - TE 449 00:49:15 00:16:38
135 137 COUE SEBASTIEN TEAM PERFORMANCE ENDURO YAMAHA - 450 YZF 00:49:41 00:17:04
136 176 RAAF Greg MEMO TOURS - ALFIE COX TEAM KTM - 450 Replica 00:49:41 00:17:04
137 101 SULEM Emmanuel TEAM SSP KTM - 450 RR 00:49:43 00:17:06
138 188 CONGER Bill RALLY PAN AM HUSQUARNA - TE 449 00:49:45 00:17:08
139 091 TONETTI NICOLA TEAM BOANO HONDA - CRF 450 X 00:50:01 00:17:24
140 127 KARATHANASSIS THEOCHARIS YAMAHA - 450 00:50:33 00:17:56
141 078 ROMERO FONT ROSA KH7 VALSEBIKE KTM - 450 00:50:39 00:18:02
142 105 BARRON Jacques PERUANOS AL DAKAR KTM - 450 EXL 00:51:11 00:18:34
143 121 DAVIDSON Mark FREEDOM RALLY RACING KTM - 450 RALLYE REPLICA 00:51:17 00:18:40
144 129 DEPOORTER Philippe WIM MOTORS DAKAR KTM - 450 00:51:27 00:18:50
145 136 IGARIS GINTAUTAS YAMAHA - WR450F 00:51:56 00:19:19
146 135 SCOTT-WILLIAMS Neil MEMO TOURS - ALFIE COX TEAM KTM - 450 Replica 00:52:05 00:19:28
147 126 MUTELET Olivier AL DESERT YAMAHA - 450 WRF 00:52:39 00:20:02
148 112 GUYOMARC?H Yannick SCE PERFORMANCE / ASA POMPIERS DE PARIS YAMAHA - WRF 00:53:01 00:20:24
149 130 DETANG Dominique SHERCO RALLY RAID - CROCOAVENTURES SHERCO - SR 450 00:53:15 00:20:38
150 117 GHITTI Federico RALLY RACING KTM - 450 RALLY 00:53:32 00:20:55
151 143 PAILLÉ JEAN-CHRISTOPHE TB RACING YAMAHA - 450 WRF 2011 JVO RACING 00:53:59 00:21:22
152 155 GALLO ANDREA FRANCO PICCO RACING YAMAHA - WRF 450 00:54:02 00:21:25
153 090 DIGUIET Gilles KTM - 450 CC 00:54:44 00:22:07
154 156 BARBERY Juan Jose MOTOMAX-HELMET RALLY TEAM BETA - RR 450 00:54:53 00:22:16
155 125 ASTORI Gianernesto ABC RALLY ACTION TEAM KTM - 450 RR 00:55:04 00:22:27
156 099 CHERPIN Pierre KTM - 450 RR 00:55:05 00:22:28
157 128 ANO Julio TEAM NORMAND RAID YAMAHA - WRF 450 00:55:26 00:22:49
158 108 STEVENSON Iain MEMO TOURS - ALFIE COX TEAM KTM - 450 RALLY 00:55:28 00:22:51
159 106 EMBRO JAMES MEMO TOURS - ALFIE COX TEAM KTM - 450 RALLY 00:55:58 00:23:21
160 111 ESPINASSE SYLVAIN SHERCO RALLY RAID - CROCOAVENTURES SHERCO - SR 450 00:56:52 00:24:15
161 171 LORENZETTI MARIANO DKR SPIRIT TEAM KTM - 450 00:57:04 00:24:27
162 139 GARD GILLES UN DAKAR POUR LA VIE YAMAHA - 450 WRF 00:58:58 00:26:21
163 161 ORLANDO SALVATORE TEAM AL DESERT YAMAHA - 450WRF JVO 00:58:59 00:26:22
164 162 FLAMBERT OLIVIER TEAM AL DESERT YAMAHA - 450 WR 00:59:05 00:26:28
165 166 PANIGALLI FRANCO FRANCO PICCO RACING YAMAHA - MOTO WRF 450 00:59:53 00:27:16
166 142 CAREVIC Andrés INSTITUTO NACIONAL DEL DEPORTE YAMAHA - 450 WR 01:00:07 00:27:30
167 187 YOUNGER TOBIAS DESERT ROSE RACING KTM - 450EXC 01:00:19 00:27:42
168 147 STANFIELD Michael FREEDOM RALLY RACING KTM - 450 EXC 01:01:02 00:28:25
169 163 CHAPSAL ERIC TEAM SSP KTM - 450 EXC 01:01:26 00:28:49
170 158 VELLUTINO Carlo PERUANOS AL DAKAR KTM - 450 EXC 2011 01:01:39 00:29:02
171 182 ZATKO JAN SLOVAKIA TURBOTEAM ZATKO BMW - G450X 01:02:14 00:29:37
172 180 PICKERING Jago DESERT ROSE RACING KTM - 450EXC 01:02:20 00:29:43
173 167 DEZEIRAUD THIERRY TEAM SSP KTM - 450 EXC 01:02:34 00:29:57
174 132 FRIGERIO MAURIZIO BETA - 01:02:45 00:30:08
175 160 HAMEL ERIC YAMAHA - 450 WRF 01:04:20 00:31:43
176 174 MARTÍNEZ Paco PACO MARTINEZ KAWASAKI - KX450 01:13:51 00:41:14
177 133 SCHNEIDER CHARLES SHERCO RALLY RAID - CROCOAVENTURES SHERCO - SR 450 02:02:32 01:29:55

Créer un site gratuit avec e-monsite - Signaler un contenu illicite sur ce site